Regional Weather Roundup
Issued by NWS

Home | Current Version | Previous Version | Graphics & Text | Print | Product List | Glossary On
Versions: 1 2 3 4 5 6 7 8 9 10 11 12 13 14 15 16 17 18 19 20 21 22 23 24 25 26 27 28 29 30 31 32 33 34 35 36 37 38 39 40 41 42 43 44 45 46 47 48 49 50
000
ASUS43 KLOT 010812
RWRIL

ILLINOIS REGIONAL WEATHER ROUNDUP
NATIONAL WEATHER SERVICE CHICAGO/ROMEOVILLE IL
300 AM CDT TUE SEP 01 2015

NOTE: "FAIR" INDICATES FEW OR NO CLOUDS BELOW 12,000 FEET WITH NO
SIGNIFICANT WEATHER AND/OR OBSTRUCTIONS TO VISIBILITY.

* THESE STATIONS ARE NOT UNDER NWS QUALITY CONTROL. THEY ALSO MAY NOT
  REPORT WEATHER SUCH AS PRECIPITATION OR FOG.

ILZ001-002-007-009-015-016-024-010900-
NORTHWEST ILLINOIS

CITY           SKY/WX    TMP DP  RH WIND       PRES   REMARKS
MOLINE         CLEAR     74  70  87 S5        29.99F
STERLING*      CLEAR     73  72  94 CALM      29.99S
SAVANNA*       CLEAR     72  69  90 S6        29.99F FOG
$$

ILZ003-004-008-010-011-017-018-010900-
NORTH CENTRAL ILLINOIS

CITY           SKY/WX    TMP DP  RH WIND       PRES   REMARKS
ROCKFORD       CLEAR     70  67  90 CALM      30.03F FOG
FREEPORT*      CLEAR     71  69  94 S8        30.03S FOG
ROCHELLE*      CLEAR     69  68  98 S3        30.03F FOG
DE KALB*       CLEAR     68  67  97 S7        30.04F FOG
PERU*          CLEAR     72  69  91 S6        30.03S
$$

ILZ005-006-012>014-019>023-010900-
NORTHEAST ILLINOIS

CITY           SKY/WX    TMP DP  RH WIND       PRES   REMARKS
CHICAGO-OHARE  PTCLDY    71  68  90 S3        30.03S
CHICAGO-MIDWAY PTCLDY    75  69  81 S5        30.04S
AURORA         CLEAR     69  67  93 CALM      30.04S FOG
LANSING*       PTCLDY    70  69  97 CALM      30.05F FOG
JOLIET*        FAIR      70  69  97 CALM      30.04S FOG
WAUKEGAN       CLEAR     68  67  96 SW6       30.02F FOG
DUPAGE AIRPORT CLEAR     71  68  90 S3        30.03S
KANKAKEE*      MOCLDY    68  67  96 CALM      30.06F FOG
WHEELING       CLEAR     68  65  90 CALM      30.04F
MORRIS*        CLEAR     69  68  95 CALM      30.03S FOG
ROMEOVILLE*    PTCLDY    71  69  94 S7        30.04F FOG
NORTHERLY ISL    N/A     75  68  78 S3          N/A
$$

LMZ740>746-010900-
SOUTHERN LAKE MICHIGAN

STATION/POSITION SKY/WX   TEMP    WIND        PRES    VSBY  WAVE
                          AIR SEA DIR/SP/G                  HT/PER
                          (F)     (DEG/KT/KT) (MB)    (MI)  (FT/S)
SOUTHERN BUOY              71 69  170/  8/  8 1016.6F         0
WILMETTE HARBOR            67 59  320/  4/  6   N/A           1
HARRISON CRIB              76     190/ 11/ 13   N/A
BURNHAM HARBOR             75     200/  3/  5   N/A
CALUMET HARBOR             74     180/  3/  5   N/A
BURNS HARBOR               73     190/  8/ 11 1017.9F
MICHIGAN CITY              75     160/ 10/ 13   N/A
MICHIGAN CITY 6N           73 72  210/  6/  8   N/A           1
ST. JOSEPH                 72 71  220/  6/  6   N/A           1
$$

ILZ025>027-034>036-040-047-049-050-058-095>099-010900-
WEST-CENTRAL ILLINOIS

CITY           SKY/WX    TMP DP  RH WIND       PRES   REMARKS
QUINCY         CLEAR     74  71  91 S6        30.03S
GALESBURG*     CLEAR     71  69  93 S5        30.02S
MACOMB*        MOCLDY    73  71  94 S3        30.04S
JACKSONVILLE*  CLEAR     76  73  88 S6        30.04S
PITTSFIELD*    CLEAR     75  71  87 S3        30.05S
$$

ILZ028>032-037-038-041>044-048-051>054-059>061-010900-
CENTRAL ILLINOIS

CITY           SKY/WX    TMP DP  RH WIND       PRES   REMARKS
PONTIAC        PTCLDY    73  72  97 S5        30.05F
BLOOMINGTON    PTCLDY    73  72  97 SW7       30.07S
DECATUR        MOCLDY    74  69  85 SW7       30.07S
PEORIA         CLEAR     75  70  84 SW5       30.03F
LACON*         CLEAR     73  70  91 S5        30.02S
LINCOLN*       PTCLDY    73  69  89 CALM      30.05R
SPRINGFIELD    CLEAR     74  71  91 S5        30.05S
TAYLORVILLE    CLEAR     70  68  94 S6        30.06S
$$

ILZ033-039-045-046-055>057-062-063-010900-
EAST-CENTRAL ILLINOIS

CITY           SKY/WX    TMP DP  RH WIND       PRES   REMARKS
CHAMPAIGN      PTCLDY    73  68  84 S6        30.07F
RANTOUL*       CLEAR     70  69  94 CALM      30.07F
MATTOON        PTCLDY    72  67  84 S6        30.07S
PARIS*         CLEAR     68  67  96 CALM      30.09S
$$

ILZ079-100>102-010900-
SOUTHWEST ILLINOIS

CITY           SKY/WX    TMP DP  RH WIND       PRES   REMARKS
ALTON          CLEAR     71  69  95 S5        30.06S
BELLEVILLE     PTCLDY    72  72 100 CALM      30.06R
CAHOKIA*       CLEAR     72  69  90 SE5       30.06S
SPARTA*        CLEAR     73  68  86 S3        30.08S
$$

ILZ064>066-069>071-074>076-080>082-084>086-088>090-092>094-010900-
SOUTH-CENTRAL ILLINOIS

CITY           SKY/WX    TMP DP  RH WIND       PRES   REMARKS
CARBONDALE     CLEAR     68  66  93 CALM      30.08S
CAIRO*         CLEAR     65  65 100 CALM      30.08S FOG
EFFINGHAM*     PTCLDY    71  67  86 CALM      30.09S
MARION         CLEAR     72  68  88 CALM      30.09S
MT. VERNON     MOCLDY    66  63  88 CALM      30.09S
SALEM*         MOCLDY    73  70  88 S3        30.08S
METROPOLIS*    CLEAR     66  66 100 CALM      30.09S FOG
$$

ILZ067-068-072-073-078-083-087-091-010900-
SOUTHEAST ILLINOIS

CITY           SKY/WX    TMP DP  RH WIND       PRES   REMARKS
LAWRENCEVILLE  CLEAR     68  66  93 CALM      30.09S
FLORA*         CLEAR     67  66  95 CALM      30.09S
FAIRFIELD*     CLEAR     68  67  96 CALM      30.08S
HARRISBURG*    CLEAR     67  67 100 CALM      30.09S FOG
ROBINSON*      PTCLDY    66  64  96 CALM      30.10S
CARMI*           N/A     66  66 100 SE3       30.08S FOG
$$

ABBREVIATIONS USED IN REMARKS
   TC - TEMPERATURE IN CELSIUS
  WCI - WIND CHILL INDEX
   HX - HEAT INDEX
  VSB - VISIBILITY
$$



USA.gov is the U.S. government's official web portal to all federal, state and local government web resources and services.